Persoonlijke zone
Imprimable
Challenges > Delhalle - Louette St Pierre, 25/07/2015, BEL - L'Ardennaise
Rapportenlijst > Trail 35 km - Classement à l'arrivée
Zoek: Bladzijde: [1]
78 Inputs
 
Klachten worden niet meer geaccepteerd. Resultaten zijn definitief.
PlaatsNrNaamLeef.IOCLigaClubWerkelijkeTijdTkmGem.ScrGemeente
1.6796WATERVAL CLAUDE34BEL2:31:092:31:094:20 13.891FOREST
2.6660LE ROUX MATTHIEU31FRATEAM RAIDLIGHT2:37:172:37:174:30 13.353NEUFLIZE
3.6491DE ZUTTER BASTIEN36BELCEPAL2:38:592:38:594:33 13.214FOREST
4.6537CAMUS RENAUD36FRAUSCN2:39:482:39:514:35 13.146VILLERS SEMEUSE
5.6582DE WITTE RODNEY37BEL2:51:142:51:194:54 12.269RONSE
6.6600FRANCOIS BENOÎT39BELTHÉODOTEMPO2:55:092:55:125:01 11.9911NEUFVILLES
7.6623HANSEN NICOLAS24BELRCNAMU2:56:012:56:035:02 11.9312SPY
8.6507AMEELE WIM32BEL2:56:442:56:475:04 11.8814KESSEL-LO
9.6792GILLARD JULIEN30BEL2:57:212:57:255:05 11.8416
10.6594EMAER JÉRÔME33BELCOACH RUNNING2:58:042:58:105:06 11.7917CALLENELLE
11.6681MASSON JEAN33FRALES VIROQUOIS3:02:373:02:405:14 11.5022VIREUX MOLHAIN
12.6781BONOMI NICOLAS32BEL3:03:573:03:585:16 11.4224NAMUR
13.6767WINTEIN JOHAN35BELRFCL3:05:103:05:105:18 11.3429SERAING
14.6733SCOLLO VALERIO31ITATRILUX3:05:103:05:105:18 11.3430LUXEMBOURG
15.6513BASTENDORFF CLAUDE38LUXCAPA3:05:103:05:105:18 11.3431DIEKIRCH
16.6527BOUDSOCQ STEPHANE39FRAGRAC3:07:293:07:375:22 11.1939THILAY
17.6755VANWYNSBERGHE GAETAN26BELCSDYLETEAMNEWCONCEPTSPORTS3:08:013:08:015:23 11.1740WALHAIN
18.6789PLASMANNE MAXIME35BEL3:09:333:09:345:25 11.0842LASNE
19.6614GODEFROID EMMANUEL39BEL3:09:413:10:025:26 11.0543ROCHEFORT
20.6769ZAGLANICZNY DOMINIK36POLKAFAREK I LEWAREK3:10:073:10:115:27 11.0444PRUSZCZ GDANSKI
21.6783PALFI JANOS38HUN3:10:473:10:485:28 11.0147WATERLOO
22.6612GIVRON REGIS25BEL3:11:053:11:075:28 10.9948CHARLEROI
23.6518BERTHE BENOÎT29BEL3:13:133:13:145:32 10.8753CHAUMONT-GISTOUX
24.6483DELIENS MATHIEU30BEL3:13:063:13:215:32 10.8655
25.6624HARPIGNY CEDRIC39BEL3:13:293:13:335:32 10.8556OBOURG
26.6544CHEVALIER FABIAN33BELLES MOTIVES DE METTE3:13:413:13:455:33 10.8457BIOUL
27.6770ZAGLANICZNY MICHAL38POLKAFAREK I LEWAREK3:17:033:17:075:38 10.6564SCHENGEN
28.6653LECOMTE FLORENT37FRAUSCN3:18:103:18:225:41 10.5968FLIZE
29.6758VERHOEVEN KRIS35BEL3:18:333:18:405:41 10.5769VOSSEM
30.6666LISABETH XAVIER39BELGENTLOOPT.BE3:18:373:18:425:41 10.5770SINT-AMANDSBERG
31.6640JOSSE BERTRAND33BELTRAIL DE LA LESSE3:18:343:18:435:41 10.5771FLORIFFOUX
32.6581DEWEZ MICHAEL35BELJET3:21:503:21:595:47 10.4080OPHAIN
33.6486DUBOIS BERTRAND38BELPARNASS3:23:293:23:345:49 10.3281
34.6496ALBERT JEAN FRANCOIS36BEL3:23:253:23:385:50 10.3182
35.6757VENOT PIERRE39FRA3:24:003:24:055:50 10.2985RIXENSART
36.6587DOBBELAERE MATTHIAS36BEL3:24:063:24:275:51 10.2787AFFLIGEM
37.6713POIDEVIN MAXIME26FRA3:24:483:24:565:52 10.2588STRASBOURG
38.6774CATINUS YOURI26BEL3:25:313:25:455:53 10.2190
39.6667LOICQ ADRIEN31BEL3:26:023:26:265:54 10.1792ROSELIES
40.6762VISSE LUDOVIC27FRALES VIROQUOIS3:27:493:27:515:57 10.1096RANCENNES
41.6499VANHONACKER GAUTHIER37BELETE/TGV3:27:473:28:035:57 10.0998
42.6699NOBEN BERTRAND34BEL3:28:093:28:235:58 10.08100LOUETTE-SAINT-DENIS
43.6488DE PRIL JORN33BEL3:29:143:29:276:00 10.03102ETIKHOVE
44.6526BOUCHEZ YANNICK36BELMADRES3:33:383:33:506:07 9.82112WIERS
45.6534BULTIJNCK IGNACE35BELWILD BOARS3:33:443:34:056:07 9.81113MUIZEN
46.6615GOFFE NICOLAS31BEL3:35:343:35:356:10 9.74118OPHAIN
47.6510ANTOINE LUC38BEL3:36:493:37:166:13 9.67124REBECQ
48.6776BIASINO FABRICE38BEL3:38:053:38:316:15 9.61130BRUXELLES
49.6779REVILLON SEBASTIEN34BELFLEURUS3:42:323:42:346:22 9.44153
50.6712PLONGEON JEAN-FRANÇOIS37FRA3:42:343:42:406:22 9.43154HEVILLERS
51.6588DUCHÊNE MATTHIEU33BELCARACOTRAILER3:45:363:45:496:28 9.30157PROFONDEVILLE
52.6621HANNARD KEVIN32BEL3:51:103:51:216:37 9.08168AUVELAIS
53.6750VAN LOY JAN35BEL3:51:413:51:426:38 9.06171OLEN
54.6555DARDENNE ROBIN26BEL3:52:133:52:316:39 9.03174ROCHEFORT
55.6561DEGLIM JULIEN32BEL3:52:163:52:336:39 9.03175OHEY
56.6592DURIEZ FREDERIC29FRA3:54:413:54:456:43 8.9518362141
57.6565DELAIRE XAVIER25FRA3:55:303:55:376:44 8.91185SEDAN
58.6671MAHOUDEAUX JEAN-DAMIEN24FRA3:55:323:55:376:44 8.91186BAZEILLES
59.6678MARS PIERRE34BEL3:57:423:57:586:48 8.83189MOZET
60.6580DEWEZ GEOFFROY36BELDÉRAPAGE COMIX3:57:463:58:116:49 8.82192BRUXELLES
61.6515BÉRIOT YANN32BELJCCS3:58:273:58:496:50 8.79193GEDINNE
62.6498SIMON YOAN36FRA3:59:554:00:126:52 8.74196
63.6552CULOT LIONEL35BEL4:01:164:01:356:55 8.69200BRUXELLES
64.6508ANDRÉ SÉBASTIEN35BELPROVINCE DE NAMUR4:14:304:14:447:17 8.24216MOIGNELÉE
65.6511BAILLET JEREMY22FRAPSA AC4:16:414:17:017:21 8.17220AIGLEMONT
66.6670MAGHERMAN RUDY30BEL4:20:534:21:157:28 8.04223ROKSEM
67.6696NAUTS THIERRY33BELJCCS4:23:084:23:317:32 7.97225GESVES
68.6523BODY OLIVIER39BELCARACO'TRAILERS4:24:334:24:457:34 7.93227DURNAL
69.6634IMANDT FRANCIS34BEL4:41:374:42:038:04 7.45241WONDELGEM
70.6540CAUWENBERGH DAMIEN32BEL4:42:574:43:228:06 7.41243METTET
71.6595ENGLEBERT NICOLAS28BEL5:01:495:02:018:38 6.95248LINCENT
72.6546COLLOT NATHAN26ISR5:01:505:02:018:38 6.95249JODOIGNE
73.6657LELONG QUENTIN27BEL5:01:375:02:018:38 6.95250METTET
DNF6525BOODTS DAVY36BELTEMSE
DNF6577DERIDDER RODNEY37BELJ.E.T.ENGHIEN
DNF6636JACOBS THOMAS21BELOTTIGNIES
DNF6706PEIRSMAN YVES33BELHEVERLEE
DNF6761VIGENT BENJAMIN26FRAIXELLES
DNF: abandon; DSQ: disqualifié; Vitesse en km/h
Bladzijde: [1]